When you browse on this site, cookies collect data to enhance your experience and personalize the content and advertising you see.
Visit our Privacy Policy to learn more. By continuing to use the site, you agree to this use of cookies and data.
  • In Hungary
  • List of Countries
  • For 7 days
  • Water Temperature
  • Satellite Maps
  • Weather Map
  • News
  • Weather Widgets
  • user-avatar
    Login

    Hourly Weather Bahchisaraj

    Today, 21 January, Monday

    Time Temperature Precipitation Wind Pressure Humidity
    00:00 +3°C° 0.1 mm 4 mps 742 mmHg 86%
    01:00 +3°C° 0.1 mm 4 mps 742 mmHg 85%
    02:00 +4°C° 0 mm 4 mps 741 mmHg 85%
    03:00 +4°C° 0.1 mm 4 mps 741 mmHg 84%
    04:00 +4°C° 0.1 mm 4 mps 740 mmHg 83%
    05:00 +4°C° 0.1 mm 4 mps 740 mmHg 82%
    06:00 +4°C° 0.3 mm 4 mps 740 mmHg 83%
    07:00 +4°C° 0.3 mm 4 mps 739 mmHg 84%
    08:00 +4°C° 0 mm 4 mps 739 mmHg 85%
    09:00 +5°C° 0.4 mm 4 mps 739 mmHg 88%
    10:00 +5°C° 0.4 mm 4 mps 739 mmHg 91%
    11:00 +5°C° 0.4 mm 4 mps 740 mmHg 95%
    12:00 +5°C° 0.1 mm 4 mps 740 mmHg 94%
    13:00 +5°C° 0.1 mm 4 mps 740 mmHg 93%
    14:00 +5°C° 0 mm 4 mps 739 mmHg 94%
    15:00 +4°C° 0.1 mm 4 mps 740 mmHg 94%
    16:00 +4°C° 0.1 mm 4 mps 740 mmHg 93%
    17:00 +3°C° 0.1 mm 4 mps 741 mmHg 93%
    18:00 +3°C° 0 mm 4 mps 741 mmHg 92%
    19:00 +1°C° 0 mm 4 mps 741 mmHg 92%
    20:00 0°C° 0 mm 4 mps 742 mmHg 91%
    21:00 0°C° 0 mm 4 mps 742 mmHg 90%
    22:00 -1°C° 0 mm 4 mps 743 mmHg 89%
    23:00 -1°C° 0 mm 4 mps 743 mmHg 88%

    Tomorrow, 22 January, Tuesday

    Time Temperature Precipitation Wind Pressure Humidity
    00:00 -2°C° 0 mm 4 mps 743 mmHg 88%
    01:00 -1°C° 0 mm 3 mps 744 mmHg 88%
    02:00 -2°C° 0 mm 3 mps 744 mmHg 89%
    03:00 -2°C° 0 mm 3 mps 744 mmHg 88%
    04:00 -2°C° 0 mm 3 mps 744 mmHg 87%
    05:00 -2°C° 0 mm 3 mps 744 mmHg 86%
    06:00 -2°C° 0 mm 2 mps 745 mmHg 85%
    07:00 -2°C° 0 mm 2 mps 745 mmHg 84%
    08:00 -2°C° 0 mm 2 mps 745 mmHg 83%
    09:00 +1°C° 0 mm 1 mps 745 mmHg 79%
    10:00 +2°C° 0 mm 1 mps 746 mmHg 75%
    11:00 +3°C° 0 mm 1 mps 746 mmHg 71%
    12:00 +3°C° 0 mm 1 mps 746 mmHg 72%
    13:00 +4°C° 0 mm 1 mps 745 mmHg 72%
    14:00 +4°C° 0 mm 1 mps 745 mmHg 72%
    15:00 +3°C° 0 mm 1 mps 745 mmHg 75%
    16:00 +3°C° 0 mm 1 mps 744 mmHg 79%
    17:00 +2°C° 0 mm 1 mps 744 mmHg 82%
    18:00 +1°C° 0 mm 2 mps 744 mmHg 83%
    19:00 +1°C° 0 mm 2 mps 744 mmHg 83%
    20:00 0°C° 0 mm 3 mps 743 mmHg 84%
    21:00 0°C° 0 mm 3 mps 743 mmHg 84%
    22:00 0°C° 0 mm 3 mps 743 mmHg 84%
    23:00 0°C° 0 mm 3 mps 742 mmHg 84%

    Day after tomorrow, 23 January, Wednesday

    Time Temperature Precipitation Wind Pressure Humidity
    00:00 0°C° 0 mm 3 mps 742 mmHg 84%
    01:00 0°C° 0 mm 3 mps 742 mmHg 84%
    02:00 0°C° 0 mm 3 mps 741 mmHg 84%
    03:00 0°C° 0 mm 3 mps 741 mmHg 83%
    04:00 +1°C° 0 mm 3 mps 740 mmHg 83%
    05:00 0°C° 0 mm 4 mps 739 mmHg 83%
    06:00 0°C° 0 mm 4 mps 739 mmHg 83%
    07:00 +1°C° 0 mm 5 mps 739 mmHg 83%
    08:00 +2°C° 0 mm 5 mps 739 mmHg 83%
    09:00 +3°C° 0 mm 6 mps 739 mmHg 80%
    10:00 +4°C° 0 mm 6 mps 738 mmHg 76%
    11:00 +5°C° 0 mm 6 mps 738 mmHg 73%
    12:00 +5°C° 0.1 mm 6 mps 738 mmHg 74%
    13:00 +5°C° 0.1 mm 6 mps 737 mmHg 75%
    14:00 +5°C° 0.1 mm 7 mps 736 mmHg 76%
    15:00 +5°C° 0.1 mm 6 mps 736 mmHg 77%
    16:00 +5°C° 0.1 mm 6 mps 736 mmHg 77%
    17:00 +6°C° 0.1 mm 5 mps 736 mmHg 77%
    18:00 +6°C° 0 mm 5 mps 736 mmHg 77%
    19:00 +6°C° 0 mm 5 mps 736 mmHg 77%
    20:00 +6°C° 0 mm 5 mps 736 mmHg 77%
    21:00 +6°C° 0 mm 5 mps 736 mmHg 77%
    22:00 +6°C° 0 mm 4 mps 736 mmHg 77%
    23:00 +6°C° 0 mm 4 mps 736 mmHg 78%

    24 January, Thursday

    Time Temperature Precipitation Wind Pressure Humidity
    00:00 +6°C° 0.1 mm 4 mps 736 mmHg 79%
    01:00 +6°C° 0.1 mm 4 mps 736 mmHg 80%
    02:00 +7°C° 0.1 mm 3 mps 736 mmHg 81%
    03:00 +7°C° 0 mm 3 mps 736 mmHg 81%
    04:00 +7°C° 0 mm 3 mps 736 mmHg 80%
    05:00 +7°C° 0 mm 2 mps 735 mmHg 79%
    06:00 +7°C° 0 mm 2 mps 735 mmHg 78%
    07:00 +7°C° 0 mm 2 mps 735 mmHg 77%
    08:00 +7°C° 0 mm 2 mps 735 mmHg 76%
    09:00 +8°C° 0 mm 2 mps 735 mmHg 73%
    10:00 +9°C° 0 mm 2 mps 735 mmHg 69%
    11:00 +10°C° 0 mm 2 mps 735 mmHg 66%
    12:00 +12°C° 0 mm 2 mps 735 mmHg 64%
    13:00 +12°C° 0 mm 2 mps 734 mmHg 63%
    14:00 +12°C° 0 mm 2 mps 734 mmHg 62%
    15:00 +10°C° 0 mm 2 mps 734 mmHg 66%
    16:00 +9°C° 0 mm 2 mps 733 mmHg 69%
    17:00 +8°C° 0 mm 2 mps 733 mmHg 72%
    18:00 +7°C° 0 mm 2 mps 733 mmHg 72%
    19:00 +7°C° 0 mm 2 mps 733 mmHg 72%
    20:00 +7°C° 0 mm 3 mps 733 mmHg 72%
    21:00 +7°C° 0 mm 2 mps 733 mmHg 71%
    22:00 +7°C° 0 mm 2 mps 733 mmHg 69%
    23:00 +7°C° 0 mm 2 mps 733 mmHg 68%

    25 January, Friday

    Time Temperature Precipitation Wind Pressure Humidity
    00:00 +7°C° 0 mm 2 mps 733 mmHg 67%
    01:00 +7°C° 0 mm 2 mps 733 mmHg 66%
    02:00 +8°C° 0 mm 1 mps 733 mmHg 65%
    03:00 +8°C° 0 mm 1 mps 733 mmHg 65%
    04:00 +7°C° 0 mm 1 mps 733 mmHg 65%
    05:00 +7°C° 0 mm 1 mps 733 mmHg 65%
    06:00 +8°C° 0 mm 1 mps 734 mmHg 66%
    07:00 +8°C° 0 mm 1 mps 734 mmHg 66%
    08:00 +8°C° 0 mm 1 mps 735 mmHg 67%
    09:00 +9°C° 0 mm 1 mps 735 mmHg 66%
    10:00 +9°C° 0 mm 2 mps 735 mmHg 65%
    11:00 +10°C° 0 mm 2 mps 736 mmHg 64%
    12:00 +10°C° 0 mm 2 mps 735 mmHg 68%
    13:00 +10°C° 0 mm 3 mps 735 mmHg 72%
    14:00 +10°C° 0 mm 3 mps 735 mmHg 76%
    15:00 +9°C° 0.1 mm 3 mps 735 mmHg 82%
    16:00 +8°C° 0.1 mm 2 mps 736 mmHg 87%
    17:00 +8°C° 0.1 mm 2 mps 736 mmHg 93%
    18:00 +7°C° 0 mm 2 mps 736 mmHg 93%
    19:00 +7°C° 0 mm 2 mps 736 mmHg 92%
    20:00 +7°C° 0 mm 2 mps 736 mmHg 91%
    21:00 +7°C° 0 mm 2 mps 736 mmHg 90%
    22:00 +7°C° 0 mm 2 mps 736 mmHg 89%
    23:00 +7°C° 0 mm 2 mps 736 mmHg 87%

    26 January, Saturday

    Time Temperature Precipitation Wind Pressure Humidity
    00:00 +7°C° 0 mm 2 mps 736 mmHg 87%
    01:00 +7°C° 0 mm 2 mps 736 mmHg 86%
    02:00 +7°C° 0 mm 2 mps 736 mmHg 86%
    03:00 +7°C° 0.1 mm 2 mps 735 mmHg 85%
    04:00 +7°C° 0.1 mm 2 mps 735 mmHg 85%
    05:00 +6°C° 0.1 mm 2 mps 735 mmHg 85%
    06:00 +7°C° 0.3 mm 2 mps 735 mmHg 85%
    07:00 +7°C° 0.3 mm 2 mps 735 mmHg 85%
    08:00 +7°C° 0.3 mm 2 mps 734 mmHg 85%
    09:00 +7°C° 0.1 mm 2 mps 734 mmHg 82%
    10:00 +8°C° 0.1 mm 2 mps 734 mmHg 79%
    11:00 +10°C° 0.1 mm 1 mps 734 mmHg 76%
    12:00 +9°C° 0.1 mm 2 mps 734 mmHg 77%
    13:00 +9°C° 0.1 mm 2 mps 734 mmHg 78%
    14:00 +9°C° 0.1 mm 2 mps 733 mmHg 79%
    15:00 +8°C° 0.1 mm 2 mps 734 mmHg 82%
    16:00 +7°C° 0.1 mm 2 mps 734 mmHg 86%
    17:00 +6°C° 0.1 mm 2 mps 734 mmHg 90%
    18:00 +6°C° 0.6 mm 2 mps 734 mmHg 90%
    19:00 +6°C° 0.6 mm 2 mps 734 mmHg 91%
    20:00 +5°C° 0.6 mm 2 mps 734 mmHg 91%
    21:00 +5°C° 0.6 mm 2 mps 735 mmHg 91%
    22:00 +5°C° 0.6 mm 2 mps 735 mmHg 92%
    23:00 +4°C° 0.6 mm 2 mps 735 mmHg 92%
    Show more